933  
ASUS43 KBIS 150331  
RWRND  
NORTH DAKOTA REGIONAL WEATHER ROUNDUP  
NATIONAL WEATHER SERVICE EASTERN NORTH DAKOTA/GRAND FORKS ND  
1000 PM CDT SUN AUG 14 2022  
 
NOTE: "FAIR" INDICATES FEW OR NO CLOUDS BELOW 12,000 FEET WITH NO  
SIGNIFICANT WEATHER AND/OR S TO VISIBILITY
.  
 
NDZ001>003-009>011-017-150400-   
..NORTHWEST NORTH DAKOTA
 
 
 
CITY SKY/WX TMP DP RH WIND PRES REMARKS
 
WILLISTON NOT AVBL  
MINOT FAIR 78 68 71 SE7 29.91R  
MINOT AFB FAIR 73 69 89 S8 29.90R  

 
 
NDZ018>021-031>035-040>046-150400-   
..SOUTHWEST NORTH DAKOTA
 
 
 
CITY SKY/WX TMP DP RH WIND PRES REMARKS
 
BISMARCK FAIR 78 68 71 E9 29.94R  
DICKINSON FAIR 75 62 64 S7 29.94R  
GARRISON N/A 75 67 76 E3 29.93R  
HETTINGER FAIR 74 59 59 CALM 29.98R  

 
 
NDZ004>008-012>016-024-026-027-054-150400-   
..NORTHEAST NORTH DAKOTA
 
 
 
CITY SKY/WX TMP DP RH WIND PRES REMARKS
 
GRAND FORKS FAIR 72 62 71 SE9 29.97R  
GRAND FORKS AF FAIR 71 65 79 S8 29.97R  
DEVILS LAKE FAIR 73 67 81 S7 29.97R  

 
 
NDZ022-023-025-028>030-036>039-047>053-150400-   
..SOUTHEAST NORTH DAKOTA
 
 
 
CITY SKY/WX TMP DP RH WIND PRES REMARKS
 
JAMESTOWN FAIR 71 66 84 SE7 29.97R  
FARGO FAIR 71 61 70 S7 29.99R  
WAHPETON FAIR 66 63 88 SE7 29.99S  

 
 
 
CLICK HERE TO GO TO PREVIOUS BULLETINS.

The Nexlab ND Page Main Text Page